When you browse on this site, cookies collect data to enhance your experience and personalize the content and advertising you see.
Visit our Privacy Policy to learn more. By continuing to use the site, you agree to this use of cookies and data.
  • In Latvia
  • List of Countries
  • For 7 days
  • Water Temperature
  • Weather Map
  • Weather Widgets
  • user-avatar
    Login

    Hourly Weather Khampho

    Today, 26 January, Sunday

    Time Temperature Precipitation Wind Pressure Humidity
    00:00 +23°C° 0 mm 1 mps 736 mmHg 64%
    01:00 +23°C° 0 mm 1 mps 737 mmHg 64%
    02:00 +23°C° 0 mm 1 mps 737 mmHg 65%
    03:00 +23°C° 0 mm 1 mps 737 mmHg 66%
    04:00 +23°C° 0 mm 1 mps 737 mmHg 68%
    05:00 +23°C° 0 mm 1 mps 737 mmHg 72%
    06:00 +21°C° 0 mm 2 mps 738 mmHg 76%
    07:00 +21°C° 0 mm 2 mps 738 mmHg 81%
    08:00 +24°C° 0.1 mm 2 mps 739 mmHg 75%
    09:00 +25°C° 0.1 mm 3 mps 739 mmHg 69%
    10:00 +27°C° 0.1 mm 3 mps 740 mmHg 63%
    11:00 +26°C° 0.1 mm 3 mps 739 mmHg 64%
    12:00 +26°C° 0.1 mm 4 mps 739 mmHg 65%
    13:00 +25°C° 0.1 mm 4 mps 738 mmHg 66%
    14:00 +26°C° 0 mm 4 mps 737 mmHg 63%
    15:00 +26°C° 0 mm 4 mps 737 mmHg 59%
    16:00 +27°C° 0 mm 4 mps 737 mmHg 55%
    17:00 +25°C° 0 mm 4 mps 737 mmHg 61%
    18:00 +22°C° 0 mm 4 mps 737 mmHg 66%
    19:00 +20°C° 0 mm 4 mps 737 mmHg 71%
    20:00 +20°C° 0 mm 3 mps 738 mmHg 74%
    21:00 +19°C° 0 mm 3 mps 738 mmHg 77%
    22:00 +18°C° 0 mm 3 mps 738 mmHg 79%
    23:00 +18°C° 0 mm 3 mps 738 mmHg 81%

    Tomorrow, 27 January, Monday

    Time Temperature Precipitation Wind Pressure Humidity
    00:00 +18°C° 0 mm 3 mps 737 mmHg 83%
    01:00 +17°C° 0 mm 3 mps 737 mmHg 85%
    02:00 +17°C° 0 mm 3 mps 737 mmHg 85%
    03:00 +17°C° 0 mm 3 mps 736 mmHg 86%
    04:00 +17°C° 0 mm 3 mps 736 mmHg 86%
    05:00 +17°C° 0.1 mm 2 mps 737 mmHg 88%
    06:00 +17°C° 0.1 mm 2 mps 737 mmHg 90%
    07:00 +17°C° 0.1 mm 2 mps 738 mmHg 91%
    08:00 +19°C° 0.1 mm 2 mps 738 mmHg 84%
    09:00 +21°C° 0.1 mm 2 mps 738 mmHg 77%
    10:00 +24°C° 0.1 mm 3 mps 739 mmHg 70%
    11:00 +26°C° 0.1 mm 2 mps 738 mmHg 64%
    12:00 +28°C° 0.1 mm 2 mps 738 mmHg 57%
    13:00 +30°C° 0.1 mm 2 mps 737 mmHg 51%
    14:00 +29°C° 0.1 mm 2 mps 737 mmHg 52%
    15:00 +29°C° 0.1 mm 2 mps 736 mmHg 54%
    16:00 +28°C° 0.1 mm 2 mps 736 mmHg 55%
    17:00 +27°C° 0.1 mm 2 mps 736 mmHg 61%
    18:00 +25°C° 0.1 mm 3 mps 736 mmHg 68%
    19:00 +22°C° 0.1 mm 3 mps 736 mmHg 74%
    20:00 +21°C° 0 mm 3 mps 736 mmHg 77%
    21:00 +21°C° 0 mm 3 mps 737 mmHg 80%
    22:00 +20°C° 0 mm 3 mps 737 mmHg 83%
    23:00 +20°C° 0 mm 3 mps 737 mmHg 84%

    Day after tomorrow, 28 January, Tuesday

    Time Temperature Precipitation Wind Pressure Humidity
    00:00 +19°C° 0 mm 3 mps 737 mmHg 85%
    01:00 +19°C° 0 mm 3 mps 736 mmHg 85%
    02:00 +19°C° 0 mm 2 mps 736 mmHg 86%
    03:00 +19°C° 0 mm 2 mps 736 mmHg 86%
    04:00 +19°C° 0 mm 2 mps 736 mmHg 86%
    05:00 +19°C° 0.5 mm 2 mps 736 mmHg 88%
    06:00 +19°C° 0.5 mm 2 mps 737 mmHg 91%
    07:00 +19°C° 0.5 mm 2 mps 738 mmHg 94%
    08:00 +21°C° 0.1 mm 2 mps 738 mmHg 85%
    09:00 +24°C° 0.1 mm 2 mps 739 mmHg 75%
    10:00 +26°C° 0.1 mm 2 mps 739 mmHg 66%
    11:00 +27°C° 0.2 mm 2 mps 739 mmHg 64%
    12:00 +28°C° 0.2 mm 1 mps 738 mmHg 61%
    13:00 +29°C° 0.2 mm 1 mps 738 mmHg 58%
    14:00 +29°C° 0.2 mm 1 mps 737 mmHg 58%
    15:00 +29°C° 0.2 mm 2 mps 737 mmHg 58%
    16:00 +29°C° 0.2 mm 2 mps 736 mmHg 58%
    17:00 +27°C° 0.1 mm 2 mps 737 mmHg 64%
    18:00 +25°C° 0.1 mm 3 mps 737 mmHg 71%
    19:00 +22°C° 0.1 mm 3 mps 738 mmHg 78%
    20:00 +21°C° 0 mm 3 mps 738 mmHg 79%
    21:00 +21°C° 0 mm 3 mps 738 mmHg 81%
    22:00 +20°C° 0 mm 3 mps 739 mmHg 82%
    23:00 +20°C° 0 mm 3 mps 739 mmHg 82%

    29 January, Wednesday

    Time Temperature Precipitation Wind Pressure Humidity
    00:00 +20°C° 0 mm 3 mps 738 mmHg 83%
    01:00 +20°C° 0 mm 3 mps 738 mmHg 83%
    02:00 +20°C° 0 mm 3 mps 738 mmHg 82%
    03:00 +20°C° 0 mm 3 mps 738 mmHg 82%
    04:00 +20°C° 0 mm 3 mps 738 mmHg 82%
    05:00 +20°C° 0 mm 3 mps 738 mmHg 82%
    06:00 +20°C° 0 mm 2 mps 739 mmHg 81%
    07:00 +21°C° 0 mm 2 mps 739 mmHg 81%
    08:00 +21°C° 0.1 mm 2 mps 740 mmHg 80%
    09:00 +23°C° 0.1 mm 2 mps 740 mmHg 80%
    10:00 +23°C° 0.1 mm 2 mps 741 mmHg 79%
    11:00 +23°C° 0.2 mm 2 mps 740 mmHg 80%
    12:00 +22°C° 0.2 mm 3 mps 739 mmHg 80%
    13:00 +22°C° 0.2 mm 3 mps 739 mmHg 81%
    14:00 +23°C° 0 mm 4 mps 738 mmHg 74%
    15:00 +25°C° 0 mm 4 mps 738 mmHg 68%
    16:00 +27°C° 0 mm 4 mps 738 mmHg 61%
    17:00 +25°C° 0 mm 4 mps 738 mmHg 65%
    18:00 +23°C° 0 mm 4 mps 739 mmHg 69%
    19:00 +22°C° 0 mm 4 mps 739 mmHg 74%
    20:00 +21°C° 0 mm 4 mps 739 mmHg 76%
    21:00 +21°C° 0 mm 3 mps 740 mmHg 78%
    22:00 +20°C° 0 mm 3 mps 740 mmHg 80%
    23:00 +20°C° 0 mm 3 mps 740 mmHg 82%

    30 January, Thursday

    Time Temperature Precipitation Wind Pressure Humidity
    00:00 +19°C° 0 mm 3 mps 739 mmHg 84%
    01:00 +19°C° 0 mm 3 mps 739 mmHg 86%
    02:00 +19°C° 0 mm 3 mps 739 mmHg 85%
    03:00 +19°C° 0 mm 3 mps 739 mmHg 85%
    04:00 +19°C° 0 mm 2 mps 739 mmHg 84%
    05:00 +19°C° 0 mm 3 mps 739 mmHg 82%
    06:00 +20°C° 0 mm 3 mps 740 mmHg 79%
    07:00 +20°C° 0 mm 3 mps 740 mmHg 77%
    08:00 +21°C° 0 mm 3 mps 740 mmHg 72%
    09:00 +22°C° 0 mm 4 mps 741 mmHg 68%
    10:00 +25°C° 0 mm 4 mps 741 mmHg 63%
    11:00 +26°C° 0 mm 4 mps 741 mmHg 58%
    12:00 +27°C° 0 mm 5 mps 740 mmHg 53%
    13:00 +28°C° 0 mm 5 mps 739 mmHg 49%
    14:00 +28°C° 0 mm 5 mps 739 mmHg 49%
    15:00 +28°C° 0 mm 5 mps 739 mmHg 49%
    16:00 +28°C° 0 mm 5 mps 738 mmHg 50%
    17:00 +26°C° 0 mm 5 mps 739 mmHg 57%
    18:00 +23°C° 0 mm 4 mps 739 mmHg 65%
    19:00 +21°C° 0 mm 4 mps 739 mmHg 72%
    20:00 +21°C° 0 mm 4 mps 740 mmHg 73%
    21:00 +21°C° 0 mm 4 mps 740 mmHg 73%
    22:00 +21°C° 0 mm 4 mps 740 mmHg 73%
    23:00 +20°C° 0 mm 3 mps 740 mmHg 75%

    31 January, Friday

    Time Temperature Precipitation Wind Pressure Humidity
    00:00 +20°C° 0 mm 3 mps 740 mmHg 77%
    01:00 +20°C° 0 mm 3 mps 739 mmHg 79%
    02:00 +20°C° 0 mm 2 mps 739 mmHg 80%
    03:00 +20°C° 0 mm 2 mps 739 mmHg 80%
    04:00 +20°C° 0 mm 2 mps 739 mmHg 81%
    05:00 +20°C° 0 mm 2 mps 739 mmHg 80%
    06:00 +20°C° 0 mm 2 mps 739 mmHg 80%
    07:00 +21°C° 0 mm 3 mps 740 mmHg 79%
    08:00 +22°C° 0 mm 3 mps 740 mmHg 72%
    09:00 +25°C° 0 mm 3 mps 740 mmHg 65%
    10:00 +27°C° 0 mm 4 mps 741 mmHg 59%
    11:00 +28°C° 0 mm 3 mps 740 mmHg 52%
    12:00 +30°C° 0 mm 3 mps 739 mmHg 46%
    13:00 +33°C° 0 mm 3 mps 739 mmHg 40%
    14:00 +33°C° 0 mm 3 mps 738 mmHg 41%
    15:00 +31°C° 0 mm 3 mps 738 mmHg 43%
    16:00 +32°C° 0 mm 4 mps 737 mmHg 44%
    17:00 +28°C° 0 mm 4 mps 738 mmHg 53%
    18:00 +26°C° 0 mm 4 mps 738 mmHg 61%
    19:00 +24°C° 0 mm 3 mps 738 mmHg 70%
    20:00 +22°C° 0 mm 3 mps 739 mmHg 74%
    21:00 +21°C° 0 mm 3 mps 739 mmHg 78%
    22:00 +21°C° 0 mm 3 mps 739 mmHg 82%
    23:00 +20°C° 0 mm 2 mps 739 mmHg 85%
    Show more